Reflectivity
-20 -20 -20 -20 -20 -20 -20 -20 -20 -20 -20 -20 -20 -20 -20 -20 -20 -20 -20 -20 -20 -20 -20 -20 -20 -20 -20 -20 -20 -20 -20 -20
-20 -20 -20 -20 -20 -14 -20 -20 -20 -20 -20 -20 -20 -20 -20 -20 -20 -20 -12 -20 -16 -20 -20 -20 -20 -20 -20 -20 -20 -20 -20 -20
-20 -20 -20 -20 -20 -20 -20 -20 -20 -18 -20 -20 -17 -20 -20 -20 -20 -20 -20 -14 -7 -20 -20 -20 -20 -20 -20 -20 -19 -20 -20 -20
-20 -20 -20 -20 -20 -20 -20 -20 -20 -20 -20 -20 -20 -20 -20 -20 -20 -20 -20 -15 -18 -19 -19 -20 -6 -20 -19 -20 -20 -20 -20 -20
-20 -20 -20 -20 -20 -20 -20 -20 -20 -2 3 4 -20 -2 -5 -20 -5 -5 -7 -20 -19 -8 5 4 -17 -20 -20 -20 -20 -20 -20 -20
-20 -20 -20 -18 -6 -20 -8 -1 -20 -3 -0 -7 -1 14 -11 -6 -17 27 9 -0 -7 4 3 -1 -13 -16 -20 -20 -20 -20 -20 -20
-20 -20 -20 -20 -20 -13 9 2 1 3 4 -1 3 -4 10 1 1 7 4 3 18 -3 4 -0 5 15 -1 -20 -7 -18 -20 -20
-20 -20 -20 -20 -20 -14 7 6 14 12 15 5 11 23 15 -15 7 20 5 3 0 3 -11 23 8 15 19 -5 -3 18 27 -20
-20 -20 -20 -20 -20 -20 -20 -19 -11 -15 8 -20 -14 19 14 29 32 33 26 36 16 9 -3 -20 5 -1 0 20 20 5 -7 6
-20 -20 -20 -20 -20 -20 -20 -20 -10 -16 -10 -2 -13 -10 9 29 32 25 -7 -2 -4 5 40 -12 -20 3 7 28 23 24 1 -3
-20 -20 -20 -20 -6 -20 -20 -20 -20 -20 -20 -20 -20 -20 -20 -20 -20 -20 -20 1 -7 10 25 28 -0 -3 31 16 18 30 8 11
-20 -20 -20 -20 -20 -20 -20 -20 -20 -20 -20 -20 -20 -20 -20 -20 -20 -20 -20 -20 -0 13 12 13 4 -20 -18 18 -5 21 29 4
-20 -20 -20 -20 -20 -20 -20 -20 -20 -20 -20 -20 -20 -20 -20 -20 -20 -20 -20 -20 -20 -20 -10 4 20 -20 -20 -20 -20 4 43 29
-20 -20 -20 -20 -20 -20 -20 -20 -20 -20 -20 -20 -20 -20 -20 -20 -20 -20 -20 -20 -20 -20 -20 -3 4 -3 22 8 6 -12 21 -20
-20 -20 -20 -20 -20 -20 -20 -20 -20 -20 -20 -20 -20 -20 -20 -20 -20 -20 -20 -20 -20 -20 -20 -20 4 -19 -6 17 18 -2 -20 16
-20 -20 -20 -20 -20 -20 -20 -20 -20 -20 -20 -20 -20 -20 -20 -20 -20 -20 -20 -20 -20 -20 -20 -20 -14 -6 -19 -20 14 17 28 19
-20 -20 -20 -20 -20 -20 -20 -20 -20 -20 -20 -20 -20 -20 -20 -20 -20 -20 -20 -20 -20 -16 -19 -19 -19 -20 -20 2 -20 10 16 26
-20 -20 -20 -20 -20 -20 -20 -20 -20 -20 -20 -20 -20 -20 -20 -20 -20 -20 -20 -19 -17 -20 -20 -15 -20 -15 -18 -20 -4 -12 -15 23
-20 -20 -20 -20 -20 -20 -20 -10 -0 -20 -20 -20 -20 -20 -20 -20 -20 -20 -20 -20 -20 -20 -7 -20 -20 -20 -6 -14 -20 -20 -12 -11
-20 -20 -20 -20 -19 -7 -20 -20 -20 -20 -12 -4 -20 -20 -20 -20 -20 -20 -0 2 -1 -1 3 2 -10 6 1 -5 -12 -16 -20 -20
Wind_Speed
2 4 8 6 5 6 6 5 7 7 7 6 7 7 8 9 10 10 9 8 7 7 7 7 8 8 8 7 6 8 11 6
4 5 6 6 7 8 7 7 7 7 7 4 4 4 6 8 8 10 10 10 9 8 8 8 8 6 6 6 6 6 12 8
4 5 6 6 6 6 8 7 6 6 8 8 8 10 12 14 13 9 11 9 10 10 10 9 7 7 6 6 6 8 9 8
4 5 5 5 5 6 6 7 8 9 10 10 10 11 11 10 10 10 9 9 7 8 10 9 8 9 9 9 8 10 7 7
10 6 5 5 5 4 4 2 4 5 9 9 10 7 9 9 8 9 10 11 9 9 9 9 12 10 8 7 9 9 7 6
13 14 8 5 5 4 2 3 3 3 4 8 6 6 9 9 8 8 8 9 12 11 8 11 12 12 11 10 10 9 7 6
15 15 13 12 4 3 3 2 2 3 5 5 6 6 7 7 6 7 7 8 9 10 10 10 12 12 11 13 13 12 12 7
13 14 14 11 10 11 8 5 4 3 4 4 5 5 5 6 7 10 10 9 9 8 8 9 10 10 11 12 13 12 12 12
15 14 14 12 11 10 7 7 8 7 6 10 10 8 9 9 9 8 9 8 11 8 10 9 9 8 9 8 10 13 14 14
14 13 14 12 11 9 8 7 5 6 6 6 9 9 9 8 7 7 6 6 6 5 9 9 9 6 8 6 10 10 14 15
14 15 16 14 11 6 6 7 7 7 7 7 11 10 11 9 6 6 9 6 7 9 10 11 7 7 9 9 8 12 12 12
13 12 15 12 9 6 5 6 5 5 6 8 10 8 10 9 6 7 7 5 7 10 12 10 9 8 8 8 8 11 14 13
15 15 16 12 10 9 6 7 6 6 7 10 11 11 10 9 7 8 7 7 7 8 8 11 12 13 8 7 13 11 20 13
14 15 15 13 9 8 7 7 5 5 7 8 10 12 11 10 9 8 8 7 9 9 8 5 6 7 6 9 9 12 12 13
13 13 14 14 14 8 8 5 6 6 8 7 10 11 11 10 10 9 9 8 8 10 9 9 7 6 9 8 7 10 13 9
11 12 13 13 14 10 12 9 9 8 8 8 9 10 11 11 11 11 11 9 9 10 9 9 7 9 6 8 15 15 9 9
9 10 11 12 12 12 9 9 9 8 8 13 11 10 10 10 10 12 11 9 10 11 13 12 10 10 10 8 8 12 15 14
9 11 11 12 11 12 12 12 12 10 11 10 10 10 9 10 11 12 11 10 11 11 13 14 12 11 11 12 11 6 7 12
9 11 12 13 13 13 12 13 13 12 11 10 13 10 10 12 14 12 11 12 12 12 13 14 13 12 13 11 13 12 9 10
11 11 11 13 13 12 12 12 8 9 10 10 9 10 10 14 14 14 13 13 12 12 11 11 13 12 15 14 11 13 13 10
Wind_Direction
224 228 182 187 192 186 192 201 209 216 211 206 204 191 185 187 189 195 200 204 192 190 184 191 207 207 203 209 209 223 265 234
221 215 213 207 199 190 197 198 203 208 213 205 208 191 203 199 203 203 206 201 201 193 194 198 206 222 213 214 221 236 246 255
248 231 214 216 220 190 194 213 219 207 211 208 195 222 209 211 208 194 212 208 207 195 201 194 192 216 220 217 226 239 235 243
269 272 256 237 236 227 222 222 223 219 219 212 215 221 223 228 209 191 205 222 220 205 200 193 195 233 198 196 235 247 248 260
349 331 286 270 254 245 230 256 239 247 251 232 227 220 228 213 226 203 219 214 225 206 203 214 219 229 234 224 224 240 245 243
5 359 334 317 293 259 333 260 245 246 236 236 250 219 217 235 227 224 215 213 214 214 215 226 223 226 239 241 236 247 244 241
12 14 10 354 341 321 282 266 275 288 256 263 242 255 243 221 222 227 220 228 221 221 213 222 225 226 232 241 243 240 246 248
17 21 15 19 21 15 6 13 356 332 2 349 276 276 258 242 216 219 222 218 226 229 225 225 226 240 238 239 251 254 247 246
23 23 20 20 26 27 30 22 29 27 25 26 18 18 3 299 260 255 242 234 231 224 231 227 231 235 232 249 243 252 255 249
28 23 21 21 21 34 34 19 50 43 35 30 11 11 3 338 334 324 304 271 269 207 236 219 211 207 249 232 253 249 246 249
29 27 23 16 19 22 45 37 33 31 23 21 11 9 2 344 338 346 345 312 249 244 236 238 222 201 209 230 235 245 246 247
33 31 24 20 19 358 24 29 31 30 25 16 3 2 357 344 332 336 327 314 307 283 259 235 243 239 225 223 228 239 239 230
31 28 24 20 19 13 4 4 5 2 7 3 357 353 355 345 341 331 327 310 301 301 316 298 257 244 253 249 247 254 229 233
30 27 25 22 15 10 355 339 3 343 356 350 355 347 349 342 339 328 328 312 303 299 288 304 284 273 242 245 255 245 238 241
27 23 18 18 4 7 1 356 342 1 346 344 346 342 341 338 333 327 322 314 313 309 295 283 279 294 281 253 240 245 255 209
23 21 16 14 11 9 5 356 347 347 336 338 327 337 334 334 332 338 329 320 311 302 298 294 276 273 293 258 259 269 274 244
24 18 21 14 4 0 355 356 343 339 336 333 331 331 327 329 338 326 321 316 312 307 296 296 295 284 273 271 287 266 251 253
22 15 22 16 13 6 360 354 342 343 346 334 336 325 328 334 335 321 318 311 309 301 292 285 280 277 282 270 254 266 263 246
24 19 21 15 13 6 1 359 345 343 344 337 331 331 333 331 327 321 317 312 302 296 290 284 279 276 271 270 275 261 249 274
27 22 19 16 12 4 6 358 349 342 347 336 332 332 329 326 324 317 317 309 303 297 291 285 282 277 272 263 265 268 272 257